Meteo Giornale » Osservazioni meteo Slovacchia » Piestany

ore: 19:30 - Osservazioni Meteo Piestany
Lat. 48° 37' N Lon. 17° 49' E Alt. 163 metri s.l.m.

sereno Europe/Bratislava

26 °C

Sereno

Temp. 24 Ore

16 °C

29 °C

Nord

14.8 Km/h

Dew point 19 °C

Umidità 65 %

Visibilità  10 Km

Il sole sorge alle ore 05:28

Il sole tramonta alle ore 20:20

Data e Ora Cielo e Fenomeni T °C DP °C Um. % Pres. hPa Vis. km Vento km/h
Oggi h: 19:30 sereno Sereno 26 19 65 1019 10 N 14.8
Oggi h: 19:00 sereno Sereno 27 19 61 1019 10 N 16.7
Oggi h: 18:30 sereno Sereno 28 18 54 1018 10 N 18.5
Oggi h: 18:00 sereno Sereno 29 18 51 1018 10 N 16.7
Oggi h: 17:00 sereno Sereno 29 18 51 1018 10 N/NO 13
Oggi h: 16:30 sereno Sereno 29 18 51 1018 10 NO 13
Oggi h: 16:00 sereno Sereno 29 18 51 1018 10 NO 9.3
Oggi h: 15:30 sereno Sereno 29 19 54 1018 10 N/NO 14.8
Oggi h: 15:00 sereno Sereno 28 18 54 1019 10 N 5.5
Oggi h: 14:30 sereno Sereno 27 18 57 1019 10 N/NO 9.3
Oggi h: 14:00 poco_nuvoloso Poco Nuvoloso 27 17 54 1019 10 N 7.4
Oggi h: 13:30 nuvoloso Nuvoloso 27 17 54 1019 10 N 9.3
Oggi h: 13:00 nuvoloso Nuvoloso 26 17 57 1019 10 N/NO 9.3
Oggi h: 12:30 poco_nuvoloso Poco Nuvoloso 26 16 54 1019 10 O/NO 7.4
Oggi h: 12:00 poco_nuvoloso Poco Nuvoloso 25 17 61 1019 10 N 7.4
Oggi h: 11:30 poco_nuvoloso Poco Nuvoloso 24 17 64 1019 10 N 9.3
Oggi h: 11:00 poco_nuvoloso Poco Nuvoloso 24 17 64 1019 10 N 11.1
Oggi h: 10:30 sereno Sereno 24 17 64 1019 10 N 13
Oggi h: 10:00 sereno Sereno 23 16 64 1019 10 N 11.1
Oggi h: 09:30 sereno Sereno 22 16 68 1019 10 N 11.1
Oggi h: 09:00 sereno Sereno 21 16 73 1019 10 N 13
Oggi h: 08:30 sereno Sereno 21 15 68 1019 10 N 16.7
Oggi h: 08:00 sereno Sereno 20 16 77 1019 10 N 14.8
Oggi h: 07:30 sereno Sereno 18 15 82 1018 10 N/NE 9.3
Oggi h: 07:00 sereno Sereno 18 15 82 1018 10 N 11.1
Oggi h: 06:30 sereno Sereno 16 14 87 1018 10 N 3.7
Oggi h: 06:00 sereno Sereno 16 15 93 1018 10 N 5.5
Oggi h: 05:30 coperto Coperto 16 14 87 1018 10 N 5.5
Oggi h: 05:00 sereno Sereno 16 14 87 1018 10 N 7.4
Oggi h: 04:30 coperto Coperto 16 15 93 1018 10 N 3.7
Oggi h: 04:00 coperto Coperto 17 14 82 1018 10 N 9.3
Oggi h: 03:30 coperto Coperto 17 15 88 1018 10 N 7.4
Oggi h: 03:00 coperto Coperto 17 14 82 1018 10 NE 9.3
Oggi h: 02:30 coperto Coperto 17 14 82 1018 10 N 13
Oggi h: 02:00 coperto Coperto 17 14 82 1018 10 N 13
Oggi h: 01:30 coperto Coperto 17 15 88 1017 10 N/NO 9.3
Oggi h: 01:00 coperto Coperto 16 14 87 1017 10 N 11.1
Oggi h: 00:30 coperto Coperto 17 14 82 1017 10 N 11.1
Oggi h: 00:00 coperto Coperto 17 14 82 1017 10 N 9.3
Ieri h: 23:30 sereno Sereno 17 14 82 1017 10 N 13
Ieri h: 23:00 sereno Sereno 18 14 77 1017 10 N 11.1
Ieri h: 22:30 sereno Sereno 18 14 77 1017 10 N 14.8
Ieri h: 22:00 sereno Sereno 18 14 77 1017 10 N 18.5
Ieri h: 21:30 sereno Sereno 19 14 72 1017 10 N 18.5
Ieri h: 21:00 sereno Sereno 19 14 72 1017 10 N 24